| time (UTC) | temp F | wind direction | speed MPH | gust MPH | rain 1hr in | rain 24hr in | rain mn in | humidity % | barometer mb |
| 20260902165058 | 59 | 68 | 2.0 | 8.0 | 0.00 | 0.00 | 0.00 | 86 | 1010.4 |
| 20260902164043 | 59 | 315 | 1.0 | 6.0 | 0.00 | 0.00 | 0.00 | 86 | 1010.9 |
| 20260902163018 | 59 | 68 | 4.0 | 11.0 | 0.00 | 0.00 | 0.00 | 86 | 1010.8 |
| 20260902161447 | 58 | 45 | 2.0 | 9.0 | 0.00 | 0.00 | 0.00 | 86 | 1011.3 |
| 20260902160937 | 58 | 68 | 2.0 | 9.0 | 0.00 | 0.00 | 0.00 | 86 | 1011.7 |
| 20260902160427 | 59 | 45 | 3.0 | 9.0 | 0.00 | 0.00 | 0.00 | 85 | 1011.6 |
| 20260902155916 | 58 | 113 | 2.0 | 9.0 | 0.00 | 0.00 | 0.00 | 85 | 1011.8 |
| 20260902155407 | 58 | 338 | 3.0 | 8.0 | 0.00 | 0.00 | 0.00 | 84 | 1011.7 |
| 20260902154856 | 59 | 45 | 4.0 | 9.0 | 0.00 | 0.00 | 0.00 | 83 | 1011.3 |
| 20260902154345 | 58 | 68 | 4.0 | 11.0 | 0.00 | 0.00 | 0.00 | 84 | 1011.5 |
| 20260902153836 | 58 | 68 | 4.0 | 11.0 | 0.00 | 0.00 | 0.00 | 83 | 1012.0 |
| 20260902152816 | 58 | 113 | 2.0 | 11.0 | 0.00 | 0.00 | 0.00 | 82 | 1011.9 |
| 20260902152308 | 58 | 90 | 6.0 | 11.0 | 0.00 | 0.00 | 0.00 | 81 | 1011.9 |
| 20260902151756 | 58 | 135 | 2.0 | 8.0 | 0.00 | 0.00 | 0.00 | 81 | 1012.0 |
| 20260902151245 | 57 | 158 | 2.0 | 8.0 | 0.00 | 0.00 | 0.00 | 83 | 1011.7 |
| 20260902150735 | 57 | 338 | 3.0 | 9.0 | 0.00 | 0.00 | 0.00 | 84 | 1012.0 |
| 20260902150225 | 56 | 248 | 4.0 | 9.0 | 0.00 | 0.00 | 0.00 | 84 | 1012.1 |
| 20260902145716 | 56 | 45 | 4.0 | 8.0 | 0.00 | 0.00 | 0.00 | 84 | 1012.8 |
| 20260902144145 | 56 | 90 | 3.0 | 8.0 | 0.00 | 0.00 | 0.00 | 86 | 1013.6 |
| 20260902143634 | 56 | 203 | 3.0 | 8.0 | 0.00 | 0.00 | 0.00 | 86 | 1013.8 |
| 20260902143124 | 56 | 90 | 4.0 | 8.0 | 0.00 | 0.00 | 0.00 | 86 | 1014.2 |
| 20260902142105 | 56 | 90 | 4.0 | 7.0 | 0.00 | 0.00 | 0.00 | 86 | 1013.9 |
| 20260902141554 | 56 | 90 | 2.0 | 7.0 | 0.00 | 0.00 | 0.00 | 87 | 1014.0 |
| 20260902141044 | 55 | 45 | 2.0 | 7.0 | 0.00 | 0.00 | 0.00 | 88 | 1013.9 |
| 20260902140533 | 55 | 68 | 2.0 | 7.0 | 0.00 | 0.00 | 0.00 | 89 | 1013.9 |
| 20260902140023 | 55 | 45 | 2.0 | 7.0 | 0.00 | 0.00 | 0.00 | 89 | 1014.2 |
| 20260902135514 | 55 | 68 | 2.0 | 8.0 | 0.00 | 0.00 | 0.00 | 90 | 1014.1 |
| 20260902135004 | 54 | 68 | 3.0 | 8.0 | 0.00 | 0.00 | 0.00 | 91 | 1014.5 |
| 20260902134453 | 54 | 68 | 2.0 | 8.0 | 0.00 | 0.00 | 0.00 | 92 | 1014.4 |
| 20260902133943 | 54 | 113 | 1.0 | 4.0 | 0.00 | 0.00 | 0.00 | 92 | 1014.5 |
| 20260902133432 | 54 | 68 | 1.0 | 7.0 | 0.00 | 0.00 | 0.00 | 92 | 1014.3 |
| 20260902132923 | 54 | 90 | 1.0 | 7.0 | 0.00 | 0.00 | 0.00 | 92 | 1014.3 |
| 20260902132412 | 54 | 90 | 2.0 | 8.0 | 0.00 | 0.00 | 0.00 | 93 | 1014.4 |
| 20260902131902 | 54 | 225 | 2.0 | 8.0 | 0.00 | 0.00 | 0.00 | 93 | 1014.6 |
| 20260902131352 | 54 | 113 | 2.0 | 7.0 | 0.00 | 0.00 | 0.00 | 94 | 1014.9 |
| 20260902130842 | 53 | 135 | 2.0 | 7.0 | 0.00 | 0.00 | 0.00 | 94 | 1014.9 |
| 20260902130331 | 53 | 45 | 2.0 | 7.0 | 0.00 | 0.00 | 0.00 | 94 | 1015.1 |
| 20260902125828 | 53 | 158 | 3.0 | 7.0 | 0.00 | 0.00 | 0.00 | 95 | 1015.4 |
| 20260902125312 | 53 | 0 | 3.0 | 4.0 | 0.00 | 0.00 | 0.00 | 95 | 1015.3 |
| 20260902124802 | 53 | 270 | 2.0 | 6.0 | 0.00 | 0.00 | 0.00 | 95 | 1015.4 |
| 20260902124251 | 53 | 45 | 3.0 | 9.0 | 0.00 | 0.00 | 0.00 | 96 | 1015.4 |
| 20260902123741 | 53 | 90 | 2.0 | 9.0 | 0.00 | 0.00 | 0.00 | 96 | 1015.6 |
| 20260902123230 | 53 | 68 | 4.0 | 9.0 | 0.00 | 0.00 | 0.00 | 96 | 1015.6 |
| 20260902122721 | 53 | 45 | 3.0 | 9.0 | 0.00 | 0.00 | 0.00 | 96 | 1015.3 |
| 20260902122211 | 53 | 90 | 2.0 | 8.0 | 0.00 | 0.00 | 0.00 | 96 | 1015.5 |
| 20260902121702 | 52 | 225 | 2.0 | 4.0 | 0.00 | 0.00 | 0.00 | 97 | 1015.6 |
| 20260902121155 | 52 | 45 | 2.0 | 7.0 | 0.00 | 0.00 | 0.00 | 97 | 1015.6 |
| 20260902120640 | 52 | 45 | 2.0 | 7.0 | 0.00 | 0.00 | 0.00 | 97 | 1015.8 |
| 20260902120130 | 52 | 68 | 3.0 | 4.0 | 0.00 | 0.00 | 0.00 | 98 | 1015.8 |
| 20260902115109 | 52 | 45 | 2.0 | 4.0 | 0.00 | 0.00 | 0.00 | 98 | 1015.7 |
| 20260902114600 | 51 | 45 | 2.0 | 6.0 | 0.00 | 0.00 | 0.00 | 98 | 1015.8 |
| 20260902114050 | 51 | 68 | 3.0 | 6.0 | 0.00 | 0.00 | 0.00 | 99 | 1015.8 |
| 20260902113540 | 51 | 113 | 3.0 | 6.0 | 0.00 | 0.00 | 0.00 | 99 | 1015.7 |
| 20260902112520 | 51 | 113 | 2.0 | 7.0 | 0.00 | 0.00 | 0.00 | 99 | 1015.7 |
| 20260902112008 | 51 | 203 | 1.0 | 4.0 | 0.00 | 0.00 | 0.00 | 99 | 1015.4 |
| 20260902111500 | 50 | 158 | 2.0 | 4.0 | 0.00 | 0.00 | 0.00 | 99 | 1015.5 |
| 20260902110948 | 50 | 113 | 2.0 | 6.0 | 0.00 | 0.00 | 0.00 | 99 | 1015.5 |
| 20260902110438 | 50 | 225 | 0.0 | 6.0 | 0.00 | 0.00 | 0.00 | 99 | 1015.4 |
| 20260902105418 | 50 | 45 | 1.0 | 6.0 | 0.00 | 0.00 | 0.00 | 99 | 1015.8 |
| 20260902104908 | 50 | 45 | 2.0 | 4.0 | 0.00 | 0.00 | 0.00 | 99 | 1015.7 |
| 20260902104358 | 50 | 338 | 1.0 | 4.0 | 0.00 | 0.00 | 0.00 | 99 | 1015.8 |
| 20260902103337 | 49 | 68 | 1.0 | 4.0 | 0.00 | 0.00 | 0.00 | 99 | 1015.8 |
| 20260902102827 | 49 | 23 | 1.0 | 6.0 | 0.00 | 0.00 | 0.00 | 99 | 1015.7 |
| 20260902102318 | 49 | 203 | 2.0 | 6.0 | 0.00 | 0.00 | 0.00 | 99 | 1015.7 |
| 20260902101808 | 49 | 68 | 2.0 | 6.0 | 0.00 | 0.00 | 0.00 | 99 | 1015.4 |
| 20260902101257 | 49 | 135 | 3.0 | 6.0 | 0.00 | 0.00 | 0.00 | 99 | 1015.4 |
| 20260902100747 | 49 | 90 | 2.0 | 6.0 | 0.00 | 0.00 | 0.00 | 99 | 1015.2 |
| 20260902100237 | 49 | 270 | 0.0 | 4.0 | 0.00 | 0.00 | 0.00 | 99 | 1014.8 |
| 20260902095726 | 49 | 90 | 2.0 | 4.0 | 0.00 | 0.00 | 0.00 | 99 | 1015.2 |
| 20260902095217 | 49 | 135 | 1.0 | 4.0 | 0.00 | 0.00 | 0.00 | 99 | 1015.3 |
| 20260902094716 | 49 | 45 | 2.0 | 4.0 | 0.00 | 0.00 | 0.00 | 99 | 1015.2 |
| 20260902093646 | 49 | 248 | 1.0 | 4.0 | 0.00 | 0.00 | 0.00 | 99 | 1015.3 |
| 20260902093136 | 49 | 113 | 0.0 | 4.0 | 0.00 | 0.00 | 0.00 | 99 | 1015.4 |
| 20260902092626 | 49 | 90 | 1.0 | 4.0 | 0.00 | 0.00 | 0.00 | 99 | 1015.1 |
| 20260902092115 | 49 | 23 | 0.0 | 2.0 | 0.00 | 0.00 | 0.00 | 99 | 1015.3 |
| 20260902091610 | 49 | 90 | 0.0 | 4.0 | 0.00 | 0.00 | 0.00 | 99 | 1015.5 |
| 20260902091057 | 49 | 90 | 1.0 | 4.0 | 0.00 | 0.00 | 0.00 | 99 | 1015.6 |
| 20260902090545 | 49 | 68 | 1.0 | 4.0 | 0.00 | 0.00 | 0.00 | 99 | 1015.8 |
| 20260902090035 | 49 | 68 | 0.0 | 4.0 | 0.00 | 0.00 | 0.00 | 99 | 1015.6 |
| 20260902085525 | 49 | 45 | 2.0 | 4.0 | 0.00 | 0.00 | 0.00 | 99 | 1015.8 |
| 20260902085015 | 49 | 68 | 1.0 | 4.0 | 0.00 | 0.00 | 0.00 | 99 | 1015.6 |
| 20260902084504 | 49 | 68 | 1.0 | 4.0 | 0.00 | 0.00 | 0.00 | 99 | 1015.6 |
| 20260902083956 | 49 | 23 | 1.0 | 6.0 | 0.00 | 0.00 | 0.00 | 99 | 1015.7 |
| 20260902083444 | 49 | 90 | 2.0 | 6.0 | 0.00 | 0.00 | 0.00 | 99 | 1015.7 |
| 20260902082934 | 50 | 45 | 2.0 | 4.0 | 0.00 | 0.00 | 0.00 | 99 | 1015.7 |
| 20260902081914 | 50 | 113 | 1.0 | 4.0 | 0.00 | 0.00 | 0.00 | 99 | 1015.7 |
| 20260902081403 | 50 | 338 | 1.0 | 4.0 | 0.00 | 0.00 | 0.00 | 99 | 1015.6 |
| 20260902080343 | 49 | 23 | 2.0 | 4.0 | 0.00 | 0.00 | 0.00 | 99 | 1015.7 |
| 20260902075833 | 49 | 90 | 2.0 | 4.0 | 0.00 | 0.00 | 0.00 | 99 | 1015.6 |
| 20260902075323 | 49 | 90 | 2.0 | 4.0 | 0.00 | 0.00 | 0.00 | 99 | 1015.7 |
| 20260902074813 | 49 | 338 | 2.0 | 4.0 | 0.00 | 0.00 | 0.00 | 99 | 1016.0 |
| 20260902074303 | 48 | 45 | 2.0 | 4.0 | 0.00 | 0.00 | 0.00 | 99 | 1015.7 |
| 20260902073753 | 48 | 90 | 2.0 | 4.0 | 0.00 | 0.00 | 0.00 | 99 | 1015.7 |
| 20260902072733 | 48 | 68 | 0.0 | 2.0 | 0.00 | 0.00 | 0.00 | 99 | 1015.8 |
| 20260902072222 | 48 | 23 | 1.0 | 2.0 | 0.00 | 0.00 | 0.00 | 99 | 1015.7 |
| 20260902071202 | 48 | 270 | 1.0 | 2.0 | 0.00 | 0.00 | 0.00 | 99 | 1015.9 |
| 20260902070652 | 48 | 113 | 1.0 | 2.0 | 0.00 | 0.00 | 0.00 | 99 | 1015.9 |
| 20260902070142 | 48 | 135 | 1.0 | 4.0 | 0.00 | 0.00 | 0.00 | 99 | 1016.1 |
| 20260902065631 | 48 | 135 | 1.0 | 4.0 | 0.00 | 0.00 | 0.00 | 99 | 1016.0 |
| 20260902065121 | 48 | 68 | 1.0 | 2.0 | 0.00 | 0.00 | 0.00 | 99 | 1016.1 |
| 20260902064611 | 48 | 45 | 0.0 | 2.0 | 0.00 | 0.00 | 0.00 | 99 | 1016.3 |
| 20260902064101 | 47 | 68 | 1.0 | 2.0 | 0.00 | 0.00 | 0.00 | 99 | 1016.5 |
| 20260902063550 | 47 | 68 | 0.0 | 2.0 | 0.00 | 0.00 | 0.00 | 99 | 1016.5 |
| 20260902063042 | 47 | 68 | 0.0 | 4.0 | 0.00 | 0.00 | 0.00 | 99 | 1016.6 |
| 20260902062530 | 48 | 45 | 1.0 | 4.0 | 0.00 | 0.00 | 0.00 | 99 | 1017.0 |
| 20260902062020 | 48 | 45 | 1.0 | 4.0 | 0.00 | 0.00 | 0.00 | 99 | 1016.9 |
| 20260902061513 | 48 | 113 | 2.0 | 4.0 | 0.00 | 0.00 | 0.00 | 99 | 1017.0 |
| 20260902060452 | 48 | 45 | 2.0 | 4.0 | 0.00 | 0.00 | 0.00 | 99 | 1017.0 |
| 20260902055430 | 49 | 23 | 0.0 | 2.0 | 0.00 | 0.00 | 0.00 | 99 | 1017.1 |
| 20260902054919 | 49 | 68 | 1.0 | 2.0 | 0.00 | 0.00 | 0.00 | 99 | 1017.2 |
| 20260902054409 | 49 | 23 | 1.0 | 2.0 | 0.00 | 0.00 | 0.00 | 99 | 1017.3 |
| 20260902053900 | 49 | 68 | 1.0 | 2.0 | 0.00 | 0.00 | 0.00 | 99 | 1017.5 |
| 20260902053403 | 49 | 113 | 1.0 | 0.0 | 0.00 | 0.00 | 0.00 | 99 | 1017.5 |
| 20260902052625 | 48 | 23 | 1.0 | 4.0 | 0.00 | 0.00 | 0.00 | 99 | 1017.7 |
| 20260902051605 | 49 | 45 | 0.0 | 2.0 | 0.00 | 0.00 | 0.00 | 99 | 1017.7 |
| 20260902051055 | 49 | 68 | 1.0 | 4.0 | 0.00 | 0.00 | 0.00 | 99 | 1017.8 |
| 20260902050544 | 48 | 45 | 0.0 | 4.0 | 0.00 | 0.00 | 0.00 | 99 | 1017.8 |
| 20260902050034 | 48 | 45 | 2.0 | 4.0 | 0.00 | 0.00 | 0.00 | 99 | 1018.0 |
| 20260902045524 | 49 | 90 | 1.0 | 4.0 | 0.00 | 0.00 | 0.00 | 99 | 1018.1 |
| 20260902045014 | 49 | 23 | 1.0 | 2.0 | 0.00 | 0.00 | 0.00 | 99 | 1018.1 |
| 20260902044504 | 49 | 90 | 1.0 | 2.0 | 0.00 | 0.00 | 0.00 | 99 | 1018.2 |
| 20260902043954 | 49 | 68 | 1.0 | 2.0 | 0.00 | 0.00 | 0.00 | 99 | 1018.2 |
| 20260902043443 | 49 | 68 | 1.0 | 2.0 | 0.00 | 0.00 | 0.00 | 99 | 1018.3 |
| 20260902042933 | 49 | 113 | 0.0 | 2.0 | 0.00 | 0.00 | 0.00 | 99 | 1018.3 |
| 20260902042423 | 49 | 180 | 1.0 | 2.0 | 0.00 | 0.00 | 0.00 | 99 | 1018.4 |
| 20260902041913 | 49 | 90 | 0.0 | 2.0 | 0.00 | 0.00 | 0.00 | 99 | 1018.3 |
| 20260902041403 | 49 | 113 | 1.0 | 2.0 | 0.00 | 0.00 | 0.00 | 99 | 1018.4 |
| 20260902040852 | 49 | 68 | 2.0 | 2.0 | 0.00 | 0.00 | 0.00 | 99 | 1018.3 |
| 20260902035832 | 50 | 68 | 1.0 | 2.0 | 0.00 | 0.00 | 0.00 | 99 | 1018.2 |
| 20260902034816 | 49 | 68 | 0.0 | 2.0 | 0.00 | 0.00 | 0.00 | 99 | 1018.1 |
| 20260902034302 | 49 | 68 | 0.0 | 2.0 | 0.00 | 0.00 | 0.00 | 99 | 1018.3 |
| 20260902033752 | 49 | 293 | 0.0 | 2.0 | 0.00 | 0.00 | 0.00 | 99 | 1018.4 |
| 20260902033241 | 49 | 90 | 0.0 | 2.0 | 0.00 | 0.00 | 0.00 | 99 | 1018.4 |
| 20260902032731 | 49 | 68 | 1.0 | 2.0 | 0.00 | 0.00 | 0.00 | 99 | 1018.4 |
| 20260902031711 | 49 | 45 | 0.0 | 2.0 | 0.00 | 0.00 | 0.00 | 98 | 1018.5 |
| 20260902031201 | 49 | 225 | 0.0 | 2.0 | 0.00 | 0.00 | 0.00 | 98 | 1018.4 |
| 20260902030652 | 49 | 68 | 2.0 | 2.0 | 0.00 | 0.00 | 0.00 | 98 | 1018.6 |
| 20260902030140 | 50 | 68 | 2.0 | 2.0 | 0.00 | 0.00 | 0.00 | 98 | 1018.4 |
| 20260902025631 | 50 | 90 | 0.0 | 2.0 | 0.00 | 0.00 | 0.00 | 98 | 1018.6 |
| 20260902025121 | 50 | 45 | 0.0 | 0.0 | 0.00 | 0.00 | 0.00 | 98 | 1018.8 |
| 20260902024610 | 50 | 180 | 0.0 | 0.0 | 0.00 | 0.00 | 0.00 | 98 | 1018.7 |
| 20260902024101 | 50 | 158 | 0.0 | 2.0 | 0.00 | 0.00 | 0.00 | 98 | 1019.0 |
| 20260902023550 | 50 | 158 | 1.0 | 2.0 | 0.00 | 0.00 | 0.00 | 98 | 1019.1 |
| 20260902023042 | 50 | 180 | 0.0 | 2.0 | 0.00 | 0.00 | 0.00 | 98 | 1019.0 |
| 20260902022019 | 50 | 68 | 0.0 | 2.0 | 0.00 | 0.00 | 0.00 | 98 | 1019.2 |
| 20260902021512 | 51 | 68 | 1.0 | 2.0 | 0.00 | 0.00 | 0.00 | 98 | 1019.1 |
| 20260902020448 | 51 | 68 | 0.0 | 2.0 | 0.00 | 0.00 | 0.00 | 98 | 1019.3 |
| 20260902015939 | 51 | 338 | 1.0 | 2.0 | 0.00 | 0.00 | 0.00 | 98 | 1019.3 |
| 20260902015428 | 51 | 68 | 0.0 | 2.0 | 0.00 | 0.00 | 0.00 | 98 | 1019.2 |
| 20260902014409 | 51 | 45 | 0.0 | 2.0 | 0.00 | 0.00 | 0.00 | 98 | 1019.4 |
| 20260902013858 | 51 | 68 | 1.0 | 2.0 | 0.00 | 0.00 | 0.00 | 98 | 1019.3 |
| 20260902013349 | 51 | 90 | 0.0 | 2.0 | 0.00 | 0.00 | 0.00 | 98 | 1019.4 |
| 20260902012838 | 51 | 68 | 0.0 | 2.0 | 0.00 | 0.00 | 0.00 | 98 | 1019.1 |
| 20260902012329 | 51 | 158 | 0.0 | 4.0 | 0.00 | 0.00 | 0.00 | 98 | 1019.3 |
| 20260902011818 | 51 | 23 | 2.0 | 4.0 | 0.00 | 0.00 | 0.00 | 98 | 1019.4 |
| 20260902011307 | 51 | 45 | 0.0 | 2.0 | 0.00 | 0.00 | 0.00 | 98 | 1019.2 |
| 20260902005737 | 51 | 45 | 0.0 | 2.0 | 0.00 | 0.00 | 0.00 | 98 | 1019.0 |
| 20260902004721 | 51 | 90 | 0.0 | 2.0 | 0.00 | 0.00 | 0.00 | 97 | 1019.2 |
| 20260902004206 | 52 | 113 | 1.0 | 2.0 | 0.00 | 0.00 | 0.00 | 97 | 1019.2 |
| 20260902003657 | 52 | 203 | 0.0 | 2.0 | 0.00 | 0.00 | 0.00 | 97 | 1019.0 |
| 20260902003146 | 52 | 180 | 0.0 | 2.0 | 0.00 | 0.00 | 0.00 | 97 | 1019.2 |
| 20260902002637 | 52 | 203 | 0.0 | 2.0 | 0.00 | 0.00 | 0.00 | 97 | 1019.0 |
| 20260902002127 | 52 | 68 | 0.0 | 2.0 | 0.00 | 0.00 | 0.00 | 97 | 1018.9 |
| 20260902001616 | 52 | 0 | 0.0 | 2.0 | 0.00 | 0.00 | 0.00 | 97 | 1019.0 |
| 20260902001106 | 52 | 68 | 0.0 | 2.0 | 0.00 | 0.00 | 0.00 | 97 | 1019.0 |
| 20260902000600 | 52 | 338 | 0.0 | 2.0 | 0.00 | 0.00 | 0.00 | 97 | 1019.2 |
| 20260902000052 | 52 | 68 | 0.0 | 2.0 | 0.00 | 0.00 | 0.00 | 97 | 1018.9 |
| 20260901235536 | 52 | 45 | 0.0 | 2.0 | 0.00 | 0.00 | 0.00 | 97 | 1019.0 |
| 20260901234515 | 52 | 68 | 0.0 | 2.0 | 0.00 | 0.00 | 0.00 | 97 | 1019.2 |
| 20260901233455 | 52 | 113 | 0.0 | 2.0 | 0.00 | 0.00 | 0.00 | 97 | 1019.1 |
| 20260901232944 | 52 | 113 | 0.0 | 2.0 | 0.00 | 0.00 | 0.00 | 97 | 1019.2 |
| 20260901232434 | 52 | 0 | 0.0 | 2.0 | 0.00 | 0.00 | 0.00 | 97 | 1019.3 |
| 20260901231925 | 52 | 315 | 0.0 | 2.0 | 0.00 | 0.00 | 0.00 | 97 | 1019.2 |
| 20260901231414 | 52 | 45 | 0.0 | 2.0 | 0.00 | 0.00 | 0.00 | 97 | 1019.2 |
| 20260901230904 | 52 | 135 | 0.0 | 2.0 | 0.00 | 0.00 | 0.00 | 96 | 1019.1 |
| 20260901230353 | 52 | 23 | 2.0 | 2.0 | 0.00 | 0.00 | 0.00 | 96 | 1019.4 |
| 20260901225334 | 52 | 68 | 1.0 | 2.0 | 0.00 | 0.00 | 0.00 | 96 | 1019.1 |
| 20260901224823 | 52 | 68 | 1.0 | 2.0 | 0.00 | 0.00 | 0.00 | 96 | 1019.1 |
| 20260901223802 | 52 | 203 | 1.0 | 2.0 | 0.00 | 0.00 | 0.00 | 96 | 1019.0 |
| 20260901223252 | 52 | 23 | 1.0 | 2.0 | 0.00 | 0.00 | 0.00 | 95 | 1019.0 |
| 20260901222744 | 53 | 68 | 0.0 | 2.0 | 0.00 | 0.00 | 0.00 | 95 | 1019.3 |
| 20260901222232 | 53 | 68 | 1.0 | 2.0 | 0.00 | 0.00 | 0.00 | 95 | 1019.2 |
| 20260901221723 | 53 | 45 | 1.0 | 2.0 | 0.00 | 0.00 | 0.00 | 95 | 1019.0 |
| 20260901221213 | 53 | 113 | 0.0 | 2.0 | 0.00 | 0.00 | 0.00 | 95 | 1019.1 |
| 20260901220702 | 53 | 68 | 0.0 | 2.0 | 0.00 | 0.00 | 0.00 | 95 | 1019.2 |
| 20260901220152 | 53 | 68 | 0.0 | 2.0 | 0.00 | 0.00 | 0.00 | 95 | 1019.0 |
| 20260901215641 | 53 | 0 | 0.0 | 2.0 | 0.00 | 0.00 | 0.00 | 94 | 1018.8 |
| 20260901215132 | 53 | 68 | 0.0 | 2.0 | 0.00 | 0.00 | 0.00 | 94 | 1018.8 |
| 20260901214622 | 53 | 68 | 0.0 | 2.0 | 0.00 | 0.00 | 0.00 | 94 | 1018.8 |
| 20260901214111 | 53 | 0 | 0.0 | 2.0 | 0.00 | 0.00 | 0.00 | 94 | 1018.8 |
| 20260901213051 | 53 | 338 | 0.0 | 2.0 | 0.00 | 0.00 | 0.00 | 94 | 1018.6 |
| 20260901212541 | 53 | 158 | 0.0 | 2.0 | 0.00 | 0.00 | 0.00 | 94 | 1018.6 |
| 20260901212030 | 53 | 0 | 0.0 | 4.0 | 0.00 | 0.00 | 0.00 | 94 | 1018.6 |
| 20260901211521 | 53 | 113 | 0.0 | 4.0 | 0.00 | 0.00 | 0.00 | 94 | 1018.4 |
| 20260901210500 | 54 | 338 | 0.0 | 2.0 | 0.00 | 0.00 | 0.00 | 93 | 1018.6 |
| 20260901205950 | 54 | 68 | 0.0 | 2.0 | 0.00 | 0.00 | 0.00 | 93 | 1018.5 |
| 20260901205440 | 54 | 23 | 0.0 | 2.0 | 0.00 | 0.00 | 0.00 | 93 | 1018.5 |
| 20260901204930 | 54 | 270 | 0.0 | 2.0 | 0.00 | 0.00 | 0.00 | 93 | 1018.5 |
| 20260901204420 | 54 | 68 | 0.0 | 2.0 | 0.00 | 0.00 | 0.00 | 92 | 1018.6 |
| 20260901203910 | 54 | 113 | 0.0 | 2.0 | 0.00 | 0.00 | 0.00 | 92 | 1018.8 |
| 20260901203400 | 55 | 23 | 0.0 | 2.0 | 0.00 | 0.00 | 0.00 | 92 | 1018.8 |
| 20260901202850 | 55 | 225 | 0.0 | 2.0 | 0.00 | 0.00 | 0.00 | 92 | 1018.7 |
| 20260901202343 | 55 | 225 | 0.0 | 2.0 | 0.00 | 0.00 | 0.00 | 92 | 1018.7 |
| 20260901201829 | 55 | 23 | 0.0 | 4.0 | 0.00 | 0.00 | 0.00 | 92 | 1018.5 |
| 20260901200258 | 55 | 180 | 2.0 | 4.0 | 0.00 | 0.00 | 0.00 | 92 | 1018.6 |
| 20260901195748 | 55 | 0 | 0.0 | 2.0 | 0.00 | 0.00 | 0.00 | 91 | 1018.4 |
| 20260901194728 | 55 | 293 | 0.0 | 2.0 | 0.00 | 0.00 | 0.00 | 91 | 1018.4 |
| 20260901193708 | 55 | 315 | 0.0 | 4.0 | 0.00 | 0.00 | 0.00 | 91 | 1018.2 |
| 20260901193158 | 55 | 248 | 0.0 | 4.0 | 0.00 | 0.00 | 0.00 | 91 | 1018.5 |
| 20260901192653 | 55 | 90 | 0.0 | 2.0 | 0.00 | 0.00 | 0.00 | 91 | 1018.2 |
| 20260901191628 | 55 | 45 | 1.0 | 4.0 | 0.00 | 0.00 | 0.00 | 91 | 1018.2 |
| 20260901191118 | 55 | 203 | 2.0 | 4.0 | 0.00 | 0.00 | 0.00 | 91 | 1018.1 |
| 20260901190607 | 55 | 248 | 0.0 | 4.0 | 0.00 | 0.00 | 0.00 | 90 | 1018.2 |
| 20260901190101 | 56 | 248 | 2.0 | 4.0 | 0.00 | 0.00 | 0.00 | 89 | 1018.1 |
| 20260901185038 | 56 | 338 | 0.0 | 2.0 | 0.00 | 0.00 | 0.00 | 88 | 1018.3 |
| 20260901184526 | 57 | 113 | 1.0 | 4.0 | 0.00 | 0.00 | 0.00 | 87 | 1018.1 |
| 20260901184017 | 57 | 270 | 0.0 | 4.0 | 0.00 | 0.00 | 0.00 | 87 | 1018.2 |
| 20260901183506 | 57 | 45 | 2.0 | 4.0 | 0.00 | 0.00 | 0.00 | 86 | 1018.1 |
| 20260901182957 | 58 | 68 | 0.0 | 2.0 | 0.00 | 0.00 | 0.00 | 85 | 1018.3 |
| 20260901182446 | 58 | 338 | 0.0 | 2.0 | 0.00 | 0.00 | 0.00 | 83 | 1018.4 |
| 20260901181938 | 59 | 315 | 1.0 | 2.0 | 0.00 | 0.00 | 0.00 | 83 | 1018.4 |
| 20260901181426 | 59 | 45 | 0.0 | 2.0 | 0.00 | 0.00 | 0.00 | 83 | 1018.4 |
| 20260901180916 | 58 | 248 | 0.0 | 2.0 | 0.00 | 0.00 | 0.00 | 84 | 1018.3 |
| 20260901175345 | 58 | 203 | 0.0 | 2.0 | 0.00 | 0.00 | 0.00 | 85 | 1018.3 |
| 20260901174836 | 59 | 315 | 1.0 | 4.0 | 0.00 | 0.00 | 0.00 | 83 | 1018.3 |
| 20260901174324 | 59 | 0 | 0.0 | 4.0 | 0.00 | 0.00 | 0.00 | 82 | 1018.4 |
| 20260901173814 | 59 | 0 | 0.0 | 4.0 | 0.00 | 0.00 | 0.00 | 82 | 1018.3 |
| 20260901173304 | 59 | 270 | 0.0 | 4.0 | 0.00 | 0.00 | 0.00 | 82 | 1018.5 |
| 20260901172755 | 59 | 23 | 1.0 | 4.0 | 0.00 | 0.00 | 0.00 | 82 | 1018.7 |
| 20260901172244 | 60 | 338 | 0.0 | 4.0 | 0.00 | 0.00 | 0.00 | 82 | 1018.9 |
| 20260901171735 | 61 | 90 | 2.0 | 4.0 | 0.00 | 0.00 | 0.00 | 80 | 1018.6 |
| 20260901170713 | 60 | 248 | 2.0 | 4.0 | 0.00 | 0.00 | 0.00 | 80 | 1018.9 |
| 20260901170204 | 59 | 248 | 0.0 | 4.0 | 0.00 | 0.00 | 0.00 | 82 | 1019.1 |